contact:dominique.lefevre@mio.osupytheas.fr, maurice.libes@osupytheas.fr, didier.mallarino@osupytheas.fr
Project:EMSO http://www.emso-fr.org/EMSO-France
Depth: 2436.0 m
Title:EMSO Ligure Ouest : Data MII capteur MICROCAT
DateTime_Computer,Latitude,Longitude,Temperature,Conductivity,Pressure,DateTime_Instrument
DateTime_Computer,Latitude,Longitude,degC,S m-1,dbar,DateTime_Instrument
2021-05-16T00:01:15Z,42.805,6.029,13.2993,4.60002,2470.693,2021-5-16T02:02:26Z
2021-05-16T00:04:18Z,42.805,6.029,13.2991,4.60002,2470.646,2021-5-16T02:05:29Z
2021-05-16T00:07:21Z,42.805,6.029,13.2989,4.60003,2470.646,2021-5-16T02:08:32Z
2021-05-16T00:10:24Z,42.805,6.029,13.2990,4.60002,2470.661,2021-5-16T02:11:35Z
2021-05-16T00:13:27Z,42.805,6.029,13.2996,4.60012,2470.646,2021-5-16T02:14:38Z
2021-05-16T00:16:31Z,42.805,6.029,13.2992,4.60011,2470.646,2021-5-16T02:17:42Z
2021-05-16T00:19:34Z,42.805,6.029,13.2989,4.60005,2470.693,2021-5-16T02:20:45Z
2021-05-16T00:22:37Z,42.805,6.029,13.2988,4.60007,2470.646,2021-5-16T02:23:48Z
2021-05-16T00:25:40Z,42.805,6.029,13.2991,4.60003,2470.646,2021-5-16T02:26:51Z
2021-05-16T00:28:43Z,42.805,6.029,13.2991,4.60009,2470.624,2021-5-16T02:29:54Z
2021-05-16T00:31:46Z,42.805,6.029,13.2986,4.59994,2470.646,2021-5-16T02:32:57Z
2021-05-16T00:34:49Z,42.805,6.029,13.2986,4.60006,2470.646,2021-5-16T02:36:00Z
2021-05-16T00:37:52Z,42.805,6.029,13.2990,4.60006,2470.637,2021-5-16T02:39:03Z
2021-05-16T00:40:55Z,42.805,6.029,13.2990,4.60001,2470.624,2021-5-16T02:42:07Z
2021-05-16T00:43:59Z,42.805,6.029,13.2989,4.60001,2470.67,2021-5-16T02:45:10Z
2021-05-16T00:47:02Z,42.805,6.029,13.2989,4.59996,2470.67,2021-5-16T02:48:13Z
2021-05-16T00:50:05Z,42.805,6.029,13.2990,4.60003,2470.624,2021-5-16T02:51:16Z
2021-05-16T00:53:08Z,42.805,6.029,13.2990,4.60001,2470.624,2021-5-16T02:54:19Z
2021-05-16T00:56:11Z,42.805,6.029,13.2991,4.60001,2470.646,2021-5-16T02:57:22Z
2021-05-16T00:59:14Z,42.805,6.029,13.2989,4.59999,2470.661,2021-5-16T03:00:25Z
2021-05-16T01:02:17Z,42.805,6.029,13.2990,4.60006,2470.646,2021-5-16T03:03:28Z
2021-05-16T01:05:20Z,42.805,6.029,13.2986,4.59995,2470.661,2021-5-16T03:06:32Z
2021-05-16T01:08:24Z,42.805,6.029,13.2992,4.60001,2470.637,2021-5-16T03:09:35Z
2021-05-16T01:11:27Z,42.805,6.029,13.2989,4.59996,2470.646,2021-5-16T03:12:38Z
2021-05-16T01:14:30Z,42.805,6.029,13.2986,4.59996,2470.646,2021-5-16T03:15:41Z
2021-05-16T01:17:33Z,42.805,6.029,13.2989,4.59999,2470.624,2021-5-16T03:18:44Z
2021-05-16T01:20:36Z,42.805,6.029,13.2990,4.60002,2470.624,2021-5-16T03:21:47Z
2021-05-16T01:23:39Z,42.805,6.029,13.2991,4.60000,2470.646,2021-5-16T03:24:50Z
2021-05-16T01:26:42Z,42.805,6.029,13.2990,4.60005,2470.6,2021-5-16T03:27:53Z
2021-05-16T01:29:45Z,42.805,6.029,13.2991,4.60002,2470.624,2021-5-16T03:30:57Z
2021-05-16T01:32:49Z,42.805,6.029,13.2993,4.60007,2470.624,2021-5-16T03:34:00Z
2021-05-16T01:35:52Z,42.805,6.029,13.2990,4.60007,2470.624,2021-5-16T03:37:03Z
2021-05-16T01:38:55Z,42.805,6.029,13.2990,4.60000,2470.637,2021-5-16T03:40:06Z
2021-05-16T01:41:58Z,42.805,6.029,13.2991,4.60001,2470.624,2021-5-16T03:43:09Z
2021-05-16T01:45:01Z,42.805,6.029,13.2987,4.60003,2470.624,2021-5-16T03:46:12Z
2021-05-16T01:48:04Z,42.805,6.029,13.2986,4.59998,2470.6,2021-5-16T03:49:15Z
2021-05-16T01:51:07Z,42.805,6.029,13.2988,4.60001,2470.6,2021-5-16T03:52:18Z
2021-05-16T01:54:10Z,42.805,6.029,13.2990,4.60004,2470.624,2021-5-16T03:55:22Z
2021-05-16T01:57:14Z,42.805,6.029,13.2993,4.59999,2470.614,2021-5-16T03:58:25Z
2021-05-16T02:00:17Z,42.805,6.029,13.2985,4.59998,2470.624,2021-5-16T04:01:28Z
2021-05-16T02:03:20Z,42.805,6.029,13.2990,4.59993,2470.637,2021-5-16T04:04:31Z
2021-05-16T02:06:23Z,42.805,6.029,13.2990,4.60003,2470.577,2021-5-16T04:07:34Z
2021-05-16T02:09:26Z,42.805,6.029,13.2988,4.60004,2470.6,2021-5-16T04:10:37Z
2021-05-16T02:12:29Z,42.805,6.029,13.2988,4.60002,2470.624,2021-5-16T04:13:40Z
2021-05-16T02:15:32Z,42.805,6.029,13.2991,4.59998,2470.591,2021-5-16T04:16:43Z
2021-05-16T02:18:35Z,42.805,6.029,13.2988,4.60006,2470.6,2021-5-16T04:19:47Z
2021-05-16T02:21:39Z,42.805,6.029,13.2985,4.59999,2470.6,2021-5-16T04:22:50Z
2021-05-16T02:24:42Z,42.805,6.029,13.2982,4.59998,2470.577,2021-5-16T04:25:53Z
2021-05-16T02:27:45Z,42.805,6.029,13.2991,4.60006,2470.624,2021-5-16T04:28:56Z
2021-05-16T02:30:48Z,42.805,6.029,13.2991,4.60002,2470.577,2021-5-16T04:31:59Z
2021-05-16T02:33:51Z,42.805,6.029,13.2990,4.60002,2470.614,2021-5-16T04:35:02Z
2021-05-16T02:36:54Z,42.805,6.029,13.2991,4.59999,2470.577,2021-5-16T04:38:05Z
2021-05-16T02:39:57Z,42.805,6.029,13.2990,4.60004,2470.624,2021-5-16T04:41:08Z
2021-05-16T02:43:00Z,42.805,6.029,13.2990,4.60001,2470.577,2021-5-16T04:44:12Z
2021-05-16T02:46:04Z,42.805,6.029,13.2991,4.60003,2470.6,2021-5-16T04:47:15Z
2021-05-16T02:49:07Z,42.805,6.029,13.2989,4.59996,2470.624,2021-5-16T04:50:18Z
2021-05-16T02:52:10Z,42.805,6.029,13.2987,4.59997,2470.61,2021-5-16T04:53:21Z
2021-05-16T02:55:13Z,42.805,6.029,13.2984,4.59999,2470.614,2021-5-16T04:56:24Z
2021-05-16T02:58:16Z,42.805,6.029,13.2986,4.59996,2470.591,2021-5-16T04:59:27Z
2021-05-16T03:01:19Z,42.805,6.029,13.2987,4.59997,2470.614,2021-5-16T05:02:30Z
2021-05-16T03:04:22Z,42.805,6.029,13.2986,4.59999,2470.6,2021-5-16T05:05:33Z
2021-05-16T03:07:25Z,42.805,6.029,13.2987,4.60001,2470.6,2021-5-16T05:08:36Z
2021-05-16T03:10:29Z,42.805,6.029,13.2990,4.60006,2470.614,2021-5-16T05:11:40Z
2021-05-16T03:13:32Z,42.805,6.029,13.2990,4.60003,2470.591,2021-5-16T05:14:43Z
2021-05-16T03:16:35Z,42.805,6.029,13.2988,4.59999,2470.6,2021-5-16T05:17:46Z
2021-05-16T03:19:38Z,42.805,6.029,13.2983,4.59996,2470.577,2021-5-16T05:20:49Z
2021-05-16T03:22:41Z,42.805,6.029,13.2988,4.59999,2470.577,2021-5-16T05:23:52Z
2021-05-16T03:25:44Z,42.805,6.029,13.2990,4.60006,2470.6,2021-5-16T05:26:55Z
2021-05-16T03:28:47Z,42.805,6.029,13.2985,4.59996,2470.591,2021-5-16T05:29:58Z
2021-05-16T03:31:50Z,42.805,6.029,13.2987,4.59999,2470.6,2021-5-16T05:33:01Z
2021-05-16T03:34:54Z,42.805,6.029,13.2990,4.60000,2470.577,2021-5-16T05:36:05Z
2021-05-16T03:37:57Z,42.805,6.029,13.2988,4.60005,2470.591,2021-5-16T05:39:08Z
2021-05-16T03:41:00Z,42.805,6.029,13.2989,4.60000,2470.6,2021-5-16T05:42:11Z
2021-05-16T03:44:03Z,42.805,6.029,13.2989,4.59996,2470.577,2021-5-16T05:45:14Z
2021-05-16T03:47:06Z,42.805,6.029,13.2986,4.59999,2470.614,2021-5-16T05:48:17Z
2021-05-16T03:50:09Z,42.805,6.029,13.2990,4.59999,2470.567,2021-5-16T05:51:20Z
2021-05-16T03:53:12Z,42.805,6.029,13.2987,4.59999,2470.553,2021-5-16T05:54:23Z
2021-05-16T03:56:15Z,42.805,6.029,13.2993,4.60001,2470.591,2021-5-16T05:57:26Z
2021-05-16T03:59:18Z,42.805,6.029,13.2990,4.60006,2470.591,2021-5-16T06:00:30Z
2021-05-16T04:02:22Z,42.805,6.029,13.2989,4.59999,2470.553,2021-5-16T06:03:33Z
2021-05-16T04:05:25Z,42.805,6.029,13.2990,4.60000,2470.591,2021-5-16T06:06:36Z
2021-05-16T04:08:28Z,42.805,6.029,13.2986,4.59996,2470.577,2021-5-16T06:09:39Z
2021-05-16T04:11:31Z,42.805,6.029,13.2986,4.60002,2470.567,2021-5-16T06:12:42Z
2021-05-16T04:14:34Z,42.805,6.029,13.2990,4.60001,2470.567,2021-5-16T06:15:45Z
2021-05-16T04:17:37Z,42.805,6.029,13.2986,4.59993,2470.577,2021-5-16T06:18:48Z
2021-05-16T04:20:40Z,42.805,6.029,13.2986,4.59998,2470.614,2021-5-16T06:21:51Z
2021-05-16T04:23:43Z,42.805,6.029,13.2990,4.60005,2470.577,2021-5-16T06:24:55Z
2021-05-16T04:26:47Z,42.805,6.029,13.2989,4.59995,2470.553,2021-5-16T06:27:58Z
2021-05-16T04:29:50Z,42.805,6.029,13.2989,4.60003,2470.553,2021-5-16T06:31:01Z
2021-05-16T04:32:53Z,42.805,6.029,13.2990,4.60003,2470.567,2021-5-16T06:34:04Z
2021-05-16T04:35:56Z,42.805,6.029,13.2986,4.59993,2470.553,2021-5-16T06:37:07Z
2021-05-16T04:38:59Z,42.805,6.029,13.2990,4.60000,2470.553,2021-5-16T06:40:10Z
2021-05-16T04:42:02Z,42.805,6.029,13.2984,4.59996,2470.577,2021-5-16T06:43:13Z
2021-05-16T04:45:05Z,42.805,6.029,13.2988,4.60001,2470.53,2021-5-16T06:46:16Z
2021-05-16T04:48:08Z,42.805,6.029,13.2994,4.60005,2470.553,2021-5-16T06:49:20Z
2021-05-16T04:51:12Z,42.805,6.029,13.2984,4.59996,2470.567,2021-5-16T06:52:23Z
2021-05-16T04:54:15Z,42.805,6.029,13.2989,4.59999,2470.614,2021-5-16T06:55:26Z
2021-05-16T04:57:18Z,42.805,6.029,13.2991,4.59998,2470.6,2021-5-16T06:58:29Z
2021-05-16T05:00:21Z,42.805,6.029,13.2992,4.60001,2470.567,2021-5-16T07:01:32Z
2021-05-16T05:03:24Z,42.805,6.029,13.2983,4.60001,2470.553,2021-5-16T07:04:35Z
2021-05-16T05:06:27Z,42.805,6.029,13.2989,4.60001,2470.577,2021-5-16T07:07:38Z
2021-05-16T05:09:30Z,42.805,6.029,13.2989,4.60002,2470.53,2021-5-16T07:10:41Z
2021-05-16T05:12:33Z,42.805,6.029,13.2987,4.60003,2470.6,2021-5-16T07:13:45Z
2021-05-16T05:15:37Z,42.805,6.029,13.2991,4.59999,2470.577,2021-5-16T07:16:48Z
2021-05-16T05:18:40Z,42.805,6.029,13.2988,4.59997,2470.591,2021-5-16T07:19:51Z
2021-05-16T05:21:43Z,42.805,6.029,13.2994,4.60003,2470.591,2021-5-16T07:22:54Z
2021-05-16T05:24:46Z,42.805,6.029,13.2990,4.59999,2470.544,2021-5-16T07:25:57Z
2021-05-16T05:27:49Z,42.805,6.029,13.2993,4.60007,2470.591,2021-5-16T07:29:00Z
2021-05-16T05:30:52Z,42.805,6.029,13.2991,4.60002,2470.577,2021-5-16T07:32:03Z
2021-05-16T05:33:55Z,42.805,6.029,13.2990,4.60002,2470.567,2021-5-16T07:35:06Z
2021-05-16T05:36:58Z,42.805,6.029,13.2993,4.60003,2470.553,2021-5-16T07:38:09Z
2021-05-16T05:40:01Z,42.805,6.029,13.2990,4.60001,2470.577,2021-5-16T07:41:13Z
2021-05-16T05:43:05Z,42.805,6.029,13.2995,4.60000,2470.53,2021-5-16T07:44:16Z
2021-05-16T05:46:08Z,42.805,6.029,13.2993,4.60006,2470.567,2021-5-16T07:47:19Z
2021-05-16T05:49:11Z,42.805,6.029,13.2990,4.60004,2470.577,2021-5-16T07:50:22Z
2021-05-16T05:52:14Z,42.805,6.029,13.2997,4.60005,2470.577,2021-5-16T07:53:25Z
2021-05-16T05:55:17Z,42.805,6.029,13.2991,4.60007,2470.567,2021-5-16T07:56:28Z
2021-05-16T05:58:20Z,42.805,6.029,13.2993,4.60001,2470.553,2021-5-16T07:59:31Z
2021-05-16T06:01:23Z,42.805,6.029,13.2993,4.60003,2470.553,2021-5-16T08:02:34Z
2021-05-16T06:04:26Z,42.805,6.029,13.2986,4.59999,2470.577,2021-5-16T08:05:38Z
2021-05-16T06:07:30Z,42.805,6.029,13.2993,4.60001,2470.577,2021-5-16T08:08:41Z
2021-05-16T06:10:33Z,42.805,6.029,13.2988,4.60001,2470.577,2021-5-16T08:11:44Z
2021-05-16T06:13:36Z,42.805,6.029,13.2991,4.60005,2470.553,2021-5-16T08:14:47Z
2021-05-16T06:16:39Z,42.805,6.029,13.2993,4.60014,2470.591,2021-5-16T08:17:50Z
2021-05-16T06:19:42Z,42.805,6.029,13.2993,4.60006,2470.6,2021-5-16T08:20:53Z
2021-05-16T06:22:45Z,42.805,6.029,13.2991,4.60001,2470.567,2021-5-16T08:23:56Z
2021-05-16T06:25:48Z,42.805,6.029,13.2993,4.60002,2470.591,2021-5-16T08:26:59Z
2021-05-16T06:28:51Z,42.805,6.029,13.2993,4.60003,2470.591,2021-5-16T08:30:03Z
2021-05-16T06:31:55Z,42.805,6.029,13.2992,4.60000,2470.577,2021-5-16T08:33:06Z
2021-05-16T06:34:58Z,42.805,6.029,13.2991,4.60001,2470.577,2021-5-16T08:36:09Z
2021-05-16T06:38:01Z,42.805,6.029,13.2991,4.60002,2470.577,2021-5-16T08:39:12Z
2021-05-16T06:41:04Z,42.805,6.029,13.2990,4.60001,2470.553,2021-5-16T08:42:15Z
2021-05-16T06:44:07Z,42.805,6.029,13.2992,4.60008,2470.577,2021-5-16T08:45:18Z
2021-05-16T06:47:10Z,42.805,6.029,13.2990,4.60001,2470.6,2021-5-16T08:48:21Z
2021-05-16T06:50:13Z,42.805,6.029,13.2993,4.60004,2470.6,2021-5-16T08:51:24Z
2021-05-16T06:53:16Z,42.805,6.029,13.2986,4.59999,2470.624,2021-5-16T08:54:28Z
2021-05-16T06:56:20Z,42.805,6.029,13.2991,4.60003,2470.577,2021-5-16T08:57:31Z
2021-05-16T06:59:23Z,42.805,6.029,13.2988,4.60000,2470.6,2021-5-16T09:00:34Z
2021-05-16T07:02:26Z,42.805,6.029,13.2987,4.60005,2470.624,2021-5-16T09:03:37Z
2021-05-16T07:05:29Z,42.805,6.029,13.2990,4.59999,2470.6,2021-5-16T09:06:40Z
2021-05-16T07:08:32Z,42.805,6.029,13.2994,4.60006,2470.6,2021-5-16T09:09:43Z
2021-05-16T07:11:35Z,42.805,6.029,13.2992,4.60008,2470.6,2021-5-16T09:12:46Z
2021-05-16T07:14:38Z,42.805,6.029,13.2991,4.60005,2470.577,2021-5-16T09:15:49Z
2021-05-16T07:17:41Z,42.805,6.029,13.2991,4.60003,2470.624,2021-5-16T09:18:53Z
2021-05-16T07:20:45Z,42.805,6.029,13.2991,4.60001,2470.577,2021-5-16T09:21:56Z
2021-05-16T07:23:48Z,42.805,6.029,13.2986,4.59997,2470.6,2021-5-16T09:24:59Z
2021-05-16T07:26:51Z,42.805,6.029,13.2989,4.60000,2470.6,2021-5-16T09:28:02Z
2021-05-16T07:29:54Z,42.805,6.029,13.2991,4.60011,2470.6,2021-5-16T09:31:05Z
2021-05-16T07:32:57Z,42.805,6.029,13.2990,4.60013,2470.637,2021-5-16T09:34:08Z
2021-05-16T07:36:00Z,42.805,6.029,13.2996,4.60010,2470.6,2021-5-16T09:37:11Z
2021-05-16T07:39:03Z,42.805,6.029,13.2996,4.60008,2470.614,2021-5-16T09:40:14Z
2021-05-16T07:42:06Z,42.805,6.029,13.2993,4.60006,2470.6,2021-5-16T09:43:17Z
2021-05-16T07:45:10Z,42.805,6.029,13.2994,4.60006,2470.614,2021-5-16T09:46:21Z
2021-05-16T07:48:13Z,42.805,6.029,13.2989,4.60004,2470.624,2021-5-16T09:49:24Z
2021-05-16T07:51:16Z,42.805,6.029,13.2997,4.60009,2470.6,2021-5-16T09:52:27Z
2021-05-16T07:54:19Z,42.805,6.029,13.2991,4.60002,2470.6,2021-5-16T09:55:30Z
2021-05-16T07:57:22Z,42.805,6.029,13.2991,4.60005,2470.624,2021-5-16T09:58:33Z
2021-05-16T08:00:25Z,42.805,6.029,13.2995,4.60003,2470.6,2021-5-16T10:01:36Z
2021-05-16T08:03:28Z,42.805,6.029,13.2986,4.60000,2470.624,2021-5-16T10:04:39Z
2021-05-16T08:06:31Z,42.805,6.029,13.2993,4.60000,2470.6,2021-5-16T10:07:42Z
2021-05-16T08:09:35Z,42.805,6.029,13.2992,4.60010,2470.637,2021-5-16T10:10:46Z
2021-05-16T08:12:38Z,42.805,6.029,13.2990,4.60007,2470.6,2021-5-16T10:13:49Z
2021-05-16T08:15:41Z,42.805,6.029,13.2989,4.60007,2470.646,2021-5-16T10:16:52Z
2021-05-16T08:18:44Z,42.805,6.029,13.2990,4.60005,2470.624,2021-5-16T10:19:55Z
2021-05-16T08:21:47Z,42.805,6.029,13.2990,4.59999,2470.637,2021-5-16T10:22:58Z
2021-05-16T08:24:50Z,42.805,6.029,13.2991,4.60003,2470.624,2021-5-16T10:26:01Z
2021-05-16T08:27:53Z,42.805,6.029,13.2991,4.60003,2470.624,2021-5-16T10:29:04Z
2021-05-16T08:30:56Z,42.805,6.029,13.2991,4.60004,2470.637,2021-5-16T10:32:08Z
2021-05-16T08:34:00Z,42.805,6.029,13.2991,4.60001,2470.624,2021-5-16T10:35:11Z
2021-05-16T08:37:03Z,42.805,6.029,13.2993,4.60004,2470.624,2021-5-16T10:38:14Z
2021-05-16T08:40:06Z,42.805,6.029,13.2988,4.60001,2470.646,2021-5-16T10:41:17Z
2021-05-16T08:43:09Z,42.805,6.029,13.2990,4.59999,2470.624,2021-5-16T10:44:20Z
2021-05-16T08:46:12Z,42.805,6.029,13.2991,4.60007,2470.646,2021-5-16T10:47:23Z
2021-05-16T08:49:15Z,42.805,6.029,13.2992,4.60003,2470.646,2021-5-16T10:50:26Z
2021-05-16T08:52:18Z,42.805,6.029,13.2995,4.60005,2470.661,2021-5-16T10:53:29Z
2021-05-16T08:55:21Z,42.805,6.029,13.2987,4.60001,2470.661,2021-5-16T10:56:33Z
2021-05-16T08:58:25Z,42.805,6.029,13.2990,4.60001,2470.646,2021-5-16T10:59:36Z
2021-05-16T09:01:28Z,42.805,6.029,13.2990,4.59999,2470.637,2021-5-16T11:02:39Z
2021-05-16T09:04:31Z,42.805,6.029,13.2992,4.60003,2470.661,2021-5-16T11:05:42Z
2021-05-16T09:07:34Z,42.805,6.029,13.2993,4.60006,2470.661,2021-5-16T11:08:45Z
2021-05-16T09:10:37Z,42.805,6.029,13.2995,4.60008,2470.646,2021-5-16T11:11:48Z
2021-05-16T09:13:40Z,42.805,6.029,13.2989,4.60008,2470.624,2021-5-16T11:14:51Z
2021-05-16T09:16:43Z,42.805,6.029,13.2993,4.60003,2470.637,2021-5-16T11:17:54Z
2021-05-16T09:19:46Z,42.805,6.029,13.2993,4.60014,2470.646,2021-5-16T11:20:58Z
2021-05-16T09:22:50Z,42.805,6.029,13.2991,4.60003,2470.6,2021-5-16T11:24:01Z
2021-05-16T09:25:53Z,42.805,6.029,13.2991,4.60009,2470.661,2021-5-16T11:27:04Z
2021-05-16T09:28:56Z,42.805,6.029,13.2991,4.59999,2470.637,2021-5-16T11:30:07Z
2021-05-16T09:31:59Z,42.805,6.029,13.2988,4.60008,2470.637,2021-5-16T11:33:10Z
2021-05-16T09:35:02Z,42.805,6.029,13.2986,4.60003,2470.646,2021-5-16T11:36:13Z
2021-05-16T09:38:05Z,42.805,6.029,13.2989,4.60003,2470.637,2021-5-16T11:39:16Z
2021-05-16T09:41:08Z,42.805,6.029,13.2986,4.60006,2470.624,2021-5-16T11:42:20Z
2021-05-16T09:44:12Z,42.805,6.029,13.2986,4.60003,2470.624,2021-5-16T11:45:23Z
2021-05-16T09:47:15Z,42.805,6.029,13.2988,4.60001,2470.646,2021-5-16T11:48:26Z
2021-05-16T09:50:18Z,42.805,6.029,13.2984,4.60001,2470.637,2021-5-16T11:51:29Z
2021-05-16T09:53:21Z,42.805,6.029,13.2992,4.60003,2470.624,2021-5-16T11:54:32Z
2021-05-16T09:56:24Z,42.805,6.029,13.2990,4.60002,2470.661,2021-5-16T11:57:35Z
2021-05-16T09:59:27Z,42.805,6.029,13.2988,4.60007,2470.646,2021-5-16T12:00:38Z
2021-05-16T10:02:30Z,42.805,6.029,13.2990,4.60004,2470.624,2021-5-16T12:03:41Z
2021-05-16T10:05:33Z,42.805,6.029,13.2991,4.60006,2470.637,2021-5-16T12:06:45Z
2021-05-16T10:08:37Z,42.805,6.029,13.2992,4.60001,2470.624,2021-5-16T12:09:48Z
2021-05-16T10:11:40Z,42.805,6.029,13.2993,4.60009,2470.624,2021-5-16T12:12:51Z
2021-05-16T10:14:43Z,42.805,6.029,13.2990,4.60001,2470.577,2021-5-16T12:15:54Z
2021-05-16T10:17:46Z,42.805,6.029,13.2991,4.60000,2470.614,2021-5-16T12:18:57Z
2021-05-16T10:20:49Z,42.805,6.029,13.2990,4.60011,2470.614,2021-5-16T12:22:00Z
2021-05-16T10:23:52Z,42.805,6.029,13.2990,4.60009,2470.6,2021-5-16T12:25:03Z
2021-05-16T10:26:55Z,42.805,6.029,13.2991,4.60008,2470.6,2021-5-16T12:28:06Z
2021-05-16T10:29:58Z,42.805,6.029,13.2995,4.60009,2470.6,2021-5-16T12:31:10Z
2021-05-16T10:33:02Z,42.805,6.029,13.2991,4.60001,2470.577,2021-5-16T12:34:13Z
2021-05-16T10:36:05Z,42.805,6.029,13.2986,4.60003,2470.6,2021-5-16T12:37:16Z
2021-05-16T10:39:08Z,42.805,6.029,13.2987,4.59999,2470.624,2021-5-16T12:40:19Z
2021-05-16T10:42:11Z,42.805,6.029,13.2989,4.59999,2470.614,2021-5-16T12:43:22Z
2021-05-16T10:45:14Z,42.805,6.029,13.2991,4.60002,2470.6,2021-5-16T12:46:25Z
2021-05-16T10:48:17Z,42.805,6.029,13.2990,4.60001,2470.624,2021-5-16T12:49:28Z
2021-05-16T10:51:20Z,42.805,6.029,13.2985,4.60002,2470.624,2021-5-16T12:52:31Z
2021-05-16T10:54:23Z,42.805,6.029,13.2986,4.60004,2470.614,2021-5-16T12:55:35Z
2021-05-16T10:57:27Z,42.805,6.029,13.2986,4.60004,2470.6,2021-5-16T12:58:38Z
2021-05-16T11:00:30Z,42.805,6.029,13.2990,4.60001,2470.577,2021-5-16T13:01:41Z
2021-05-16T11:03:33Z,42.805,6.029,13.2990,4.59999,2470.577,2021-5-16T13:04:44Z
2021-05-16T11:06:36Z,42.805,6.029,13.2993,4.60011,2470.577,2021-5-16T13:07:47Z
2021-05-16T11:09:39Z,42.805,6.029,13.2990,4.60002,2470.577,2021-5-16T13:10:50Z
2021-05-16T11:12:42Z,42.805,6.029,13.2990,4.60002,2470.553,2021-5-16T13:13:53Z
2021-05-16T11:15:45Z,42.805,6.029,13.2993,4.59999,2470.553,2021-5-16T13:16:57Z
2021-05-16T11:18:49Z,42.805,6.029,13.2990,4.60009,2470.614,2021-5-16T13:20:00Z
2021-05-16T11:21:52Z,42.805,6.029,13.2990,4.60006,2470.6,2021-5-16T13:23:03Z
2021-05-16T11:24:55Z,42.805,6.029,13.2990,4.60006,2470.577,2021-5-16T13:26:06Z
2021-05-16T11:27:58Z,42.805,6.029,13.2990,4.60013,2470.577,2021-5-16T13:29:09Z
2021-05-16T11:31:01Z,42.805,6.029,13.2987,4.60003,2470.6,2021-5-16T13:32:12Z
2021-05-16T11:34:04Z,42.805,6.029,13.2996,4.60004,2470.591,2021-5-16T13:35:15Z
2021-05-16T11:37:07Z,42.805,6.029,13.2990,4.60007,2470.624,2021-5-16T13:38:18Z
2021-05-16T11:40:10Z,42.805,6.029,13.2988,4.60003,2470.577,2021-5-16T13:41:22Z
2021-05-16T11:43:14Z,42.805,6.029,13.2990,4.60009,2470.567,2021-5-16T13:44:25Z
2021-05-16T11:46:17Z,42.805,6.029,13.2991,4.60008,2470.577,2021-5-16T13:47:28Z
2021-05-16T11:49:20Z,42.805,6.029,13.2991,4.60003,2470.553,2021-5-16T13:50:31Z
2021-05-16T11:52:23Z,42.805,6.029,13.2985,4.60006,2470.6,2021-5-16T13:53:34Z
2021-05-16T11:55:26Z,42.805,6.029,13.2987,4.60006,2470.567,2021-5-16T13:56:37Z
2021-05-16T11:58:29Z,42.805,6.029,13.2992,4.60003,2470.553,2021-5-16T13:59:40Z
2021-05-16T12:01:32Z,42.805,6.029,13.2990,4.59999,2470.567,2021-5-16T14:02:43Z
2021-05-16T12:04:35Z,42.805,6.029,13.2990,4.60002,2470.553,2021-5-16T14:05:47Z
2021-05-16T12:07:39Z,42.805,6.029,13.2992,4.60002,2470.567,2021-5-16T14:08:50Z
2021-05-16T12:10:42Z,42.805,6.029,13.2986,4.60005,2470.577,2021-5-16T14:11:53Z
2021-05-16T12:13:45Z,42.805,6.029,13.2989,4.60006,2470.53,2021-5-16T14:14:56Z
2021-05-16T12:16:48Z,42.805,6.029,13.2992,4.60014,2470.544,2021-5-16T14:17:59Z
2021-05-16T12:19:51Z,42.805,6.029,13.2993,4.60008,2470.544,2021-5-16T14:21:02Z
2021-05-16T12:22:54Z,42.805,6.029,13.2990,4.60007,2470.577,2021-5-16T14:24:05Z
2021-05-16T12:25:57Z,42.805,6.029,13.2996,4.60006,2470.591,2021-5-16T14:27:08Z
2021-05-16T12:29:00Z,42.805,6.029,13.2990,4.60012,2470.577,2021-5-16T14:30:12Z
2021-05-16T12:32:04Z,42.805,6.029,13.2995,4.59998,2470.553,2021-5-16T14:33:15Z
2021-05-16T12:35:07Z,42.805,6.029,13.2986,4.60003,2470.53,2021-5-16T14:36:18Z
2021-05-16T12:38:10Z,42.805,6.029,13.2991,4.60006,2470.553,2021-5-16T14:39:21Z
2021-05-16T12:41:13Z,42.805,6.029,13.2990,4.60009,2470.553,2021-5-16T14:42:24Z
2021-05-16T12:44:16Z,42.805,6.029,13.2993,4.60003,2470.53,2021-5-16T14:45:27Z
2021-05-16T12:47:19Z,42.805,6.029,13.2990,4.60001,2470.53,2021-5-16T14:48:30Z
2021-05-16T12:50:22Z,42.805,6.029,13.2990,4.60005,2470.553,2021-5-16T14:51:33Z
2021-05-16T12:53:26Z,42.805,6.029,13.2991,4.60006,2470.507,2021-5-16T14:54:37Z
2021-05-16T12:56:29Z,42.805,6.029,13.2993,4.60001,2470.544,2021-5-16T14:57:40Z
2021-05-16T12:59:32Z,42.805,6.029,13.2992,4.60009,2470.553,2021-5-16T15:00:43Z
2021-05-16T13:02:35Z,42.805,6.029,13.2991,4.60003,2470.567,2021-5-16T15:03:46Z
2021-05-16T13:05:38Z,42.805,6.029,13.2991,4.60003,2470.553,2021-5-16T15:06:49Z
2021-05-16T13:08:41Z,42.805,6.029,13.2990,4.60001,2470.553,2021-5-16T15:09:52Z
2021-05-16T13:11:44Z,42.805,6.029,13.2990,4.60001,2470.544,2021-5-16T15:12:55Z
2021-05-16T13:14:47Z,42.805,6.029,13.2991,4.60003,2470.507,2021-5-16T15:15:59Z
2021-05-16T13:17:51Z,42.805,6.029,13.2988,4.59998,2470.567,2021-5-16T15:19:02Z
2021-05-16T13:20:54Z,42.805,6.029,13.2987,4.60003,2470.553,2021-5-16T15:22:05Z
2021-05-16T13:23:57Z,42.805,6.029,13.2990,4.60003,2470.53,2021-5-16T15:25:08Z
2021-05-16T13:27:00Z,42.805,6.029,13.2992,4.59997,2470.553,2021-5-16T15:28:11Z
2021-05-16T13:30:03Z,42.805,6.029,13.2984,4.60004,2470.577,2021-5-16T15:31:14Z
2021-05-16T13:33:06Z,42.805,6.029,13.2992,4.60006,2470.507,2021-5-16T15:34:17Z
2021-05-16T13:36:09Z,42.805,6.029,13.2989,4.60003,2470.544,2021-5-16T15:37:20Z
2021-05-16T13:39:12Z,42.805,6.029,13.2995,4.60009,2470.544,2021-5-16T15:40:24Z
2021-05-16T13:42:16Z,42.805,6.029,13.2991,4.60004,2470.52,2021-5-16T15:43:27Z
2021-05-16T13:45:19Z,42.805,6.029,13.2992,4.60006,2470.516,2021-5-16T15:46:30Z
2021-05-16T13:48:22Z,42.805,6.029,13.2993,4.60006,2470.52,2021-5-16T15:49:33Z
2021-05-16T13:51:25Z,42.805,6.029,13.2988,4.60009,2470.544,2021-5-16T15:52:36Z
2021-05-16T13:54:28Z,42.805,6.029,13.2994,4.60011,2470.544,2021-5-16T15:55:39Z
2021-05-16T13:57:31Z,42.805,6.029,13.2994,4.60002,2470.53,2021-5-16T15:58:42Z
2021-05-16T14:00:34Z,42.805,6.029,13.2995,4.60008,2470.507,2021-5-16T16:01:45Z
2021-05-16T14:03:37Z,42.805,6.029,13.2991,4.60007,2470.507,2021-5-16T16:04:49Z
2021-05-16T14:06:41Z,42.805,6.029,13.2992,4.60009,2470.53,2021-5-16T16:07:52Z
2021-05-16T14:09:44Z,42.805,6.029,13.2991,4.60009,2470.52,2021-5-16T16:10:55Z
2021-05-16T14:12:47Z,42.805,6.029,13.2989,4.60001,2470.544,2021-5-16T16:13:58Z
2021-05-16T14:15:50Z,42.805,6.029,13.2987,4.60003,2470.507,2021-5-16T16:17:01Z
2021-05-16T14:18:53Z,42.805,6.029,13.2992,4.60004,2470.53,2021-5-16T16:20:04Z
2021-05-16T14:21:56Z,42.805,6.029,13.2987,4.60000,2470.52,2021-5-16T16:23:07Z
2021-05-16T14:24:59Z,42.805,6.029,13.2990,4.60001,2470.516,2021-5-16T16:26:10Z
2021-05-16T14:28:02Z,42.805,6.029,13.2990,4.60007,2470.53,2021-5-16T16:29:14Z
2021-05-16T14:31:06Z,42.805,6.029,13.2990,4.60006,2470.53,2021-5-16T16:32:17Z
2021-05-16T14:34:09Z,42.805,6.029,13.2990,4.60000,2470.483,2021-5-16T16:35:20Z
2021-05-16T14:37:12Z,42.805,6.029,13.2986,4.60001,2470.52,2021-5-16T16:38:23Z
2021-05-16T14:40:15Z,42.805,6.029,13.2987,4.59999,2470.53,2021-5-16T16:41:26Z
2021-05-16T14:43:18Z,42.805,6.029,13.2990,4.60006,2470.483,2021-5-16T16:44:29Z
2021-05-16T14:46:21Z,42.805,6.029,13.2991,4.60001,2470.483,2021-5-16T16:47:32Z
2021-05-16T14:49:24Z,42.805,6.029,13.2990,4.60000,2470.497,2021-5-16T16:50:36Z
2021-05-16T14:52:28Z,42.805,6.029,13.2993,4.60007,2470.507,2021-5-16T16:53:39Z
2021-05-16T14:55:31Z,42.805,6.029,13.2987,4.59998,2470.497,2021-5-16T16:56:42Z
2021-05-16T14:58:34Z,42.805,6.029,13.2994,4.60005,2470.474,2021-5-16T16:59:45Z
2021-05-16T15:01:37Z,42.805,6.029,13.2988,4.60001,2470.483,2021-5-16T17:02:48Z
2021-05-16T15:04:40Z,42.805,6.029,13.2988,4.59999,2470.483,2021-5-16T17:05:51Z
2021-05-16T15:07:43Z,42.805,6.029,13.2990,4.60003,2470.483,2021-5-16T17:08:54Z
2021-05-16T15:10:46Z,42.805,6.029,13.2992,4.60010,2470.507,2021-5-16T17:11:57Z
2021-05-16T15:13:49Z,42.805,6.029,13.2986,4.60001,2470.483,2021-5-16T17:15:01Z